Total_Precipitation_Accumulation
0.06 0.04 0.04 0.05 0.04 0.02 0.00 0.00 0.00 0.00 0.00 0.00 0.00 0.00 0.00 0.00 0.00 0.01 0.01 0.01 0.02 0.05 0.09 0.18 0.24 0.28 0.31 0.33 0.34 0.34 0.34 0.35 0.38 0.40 0.44 0.49 0.51 0.52 0.56 0.60 0.61 0.63 0.68 0.72 0.74 0.71 0.69 0.67 0.63
0.05 0.04 0.06 0.07 0.04 0.01 0.00 0.00 0.00 0.00 0.00 0.00 0.00 0.00 0.00 0.00 0.00 0.00 0.01 0.01 0.01 0.02 0.06 0.13 0.23 0.28 0.32 0.34 0.35 0.35 0.35 0.36 0.38 0.42 0.47 0.50 0.51 0.53 0.57 0.60 0.63 0.64 0.66 0.73 0.74 0.71 0.69 0.68 0.69
0.07 0.08 0.10 0.08 0.03 0.00 0.00 0.00 0.00 0.00 0.00 0.00 0.00 0.00 0.00 0.00 0.00 0.01 0.01 0.01 0.01 0.02 0.04 0.13 0.24 0.30 0.34 0.37 0.38 0.38 0.40 0.41 0.43 0.45 0.48 0.54 0.56 0.58 0.59 0.58 0.57 0.58 0.57 0.60 0.62 0.68 0.73 0.72 0.71
0.10 0.15 0.14 0.08 0.02 0.00 0.00 0.00 0.00 0.00 0.00 0.00 0.00 0.00 0.00 0.00 0.01 0.01 0.01 0.01 0.02 0.03 0.05 0.14 0.24 0.32 0.37 0.41 0.41 0.41 0.43 0.45 0.48 0.50 0.52 0.58 0.65 0.66 0.64 0.60 0.61 0.57 0.54 0.55 0.58 0.64 0.74 0.73 0.68
0.14 0.18 0.15 0.07 0.01 0.00 0.00 0.00 0.00 0.00 0.00 0.00 0.00 0.00 0.00 0.00 0.00 0.01 0.01 0.02 0.03 0.05 0.08 0.14 0.24 0.35 0.40 0.44 0.46 0.46 0.49 0.50 0.52 0.54 0.57 0.61 0.66 0.68 0.66 0.67 0.64 0.61 0.58 0.57 0.57 0.61 0.72 0.70 0.65
0.18 0.19 0.13 0.04 0.01 0.00 0.00 0.00 0.00 0.00 0.00 0.00 0.00 0.00 0.00 0.00 0.00 0.00 0.01 0.01 0.02 0.03 0.06 0.12 0.26 0.35 0.41 0.46 0.50 0.52 0.56 0.59 0.60 0.60 0.65 0.68 0.69 0.69 0.68 0.67 0.64 0.63 0.61 0.58 0.59 0.61 0.66 0.63 0.60
0.19 0.17 0.09 0.03 0.01 0.00 0.00 0.00 0.00 0.00 0.00 0.00 0.00 0.00 0.00 0.00 0.00 0.00 0.01 0.02 0.04 0.06 0.09 0.15 0.26 0.36 0.44 0.52 0.55 0.58 0.62 0.65 0.65 0.67 0.70 0.74 0.74 0.75 0.72 0.67 0.60 0.61 0.61 0.61 0.61 0.59 0.57 0.55 0.53
0.20 0.21 0.10 0.04 0.02 0.01 0.00 0.00 0.00 0.01 0.00 0.00 0.00 0.00 0.00 0.01 0.01 0.01 0.03 0.05 0.08 0.10 0.14 0.19 0.29 0.35 0.44 0.53 0.60 0.65 0.69 0.71 0.77 0.80 0.74 0.75 0.81 0.85 0.81 0.72 0.66 0.62 0.61 0.60 0.58 0.56 0.50 0.47 0.48
0.27 0.30 0.12 0.03 0.02 0.02 0.01 0.01 0.01 0.01 0.01 0.01 0.00 0.00 0.01 0.02 0.02 0.04 0.07 0.10 0.14 0.16 0.19 0.24 0.33 0.41 0.47 0.53 0.59 0.72 0.82 0.85 0.90 0.93 0.85 0.84 0.86 0.84 0.81 0.72 0.70 0.65 0.62 0.58 0.59 0.57 0.56 0.53 0.48
0.32 0.25 0.08 0.02 0.02 0.03 0.04 0.03 0.03 0.04 0.02 0.01 0.01 0.01 0.02 0.03 0.05 0.07 0.09 0.12 0.15 0.17 0.22 0.28 0.36 0.44 0.55 0.61 0.68 0.77 0.86 0.91 0.91 0.81 0.84 0.87 0.83 0.81 0.77 0.75 0.76 0.71 0.69 0.67 0.66 0.61 0.59 0.57 0.47
0.25 0.17 0.06 0.03 0.03 0.05 0.06 0.06 0.05 0.07 0.05 0.03 0.03 0.03 0.04 0.05 0.07 0.09 0.11 0.13 0.15 0.18 0.23 0.31 0.41 0.52 0.62 0.66 0.70 0.75 0.80 0.85 0.87 0.79 0.73 0.76 0.80 0.81 0.83 0.77 0.77 0.77 0.77 0.79 0.75 0.73 0.61 0.53 0.49
0.19 0.12 0.08 0.07 0.06 0.08 0.08 0.08 0.07 0.07 0.06 0.05 0.06 0.04 0.05 0.08 0.09 0.11 0.13 0.15 0.18 0.23 0.27 0.34 0.44 0.54 0.64 0.71 0.73 0.72 0.75 0.76 0.75 0.76 0.76 0.74 0.75 0.70 0.69 0.70 0.66 0.66 0.66 0.68 0.71 0.67 0.62 0.54 0.50
0.17 0.11 0.09 0.09 0.09 0.10 0.11 0.11 0.09 0.05 0.05 0.06 0.08 0.07 0.07 0.09 0.12 0.14 0.17 0.18 0.21 0.26 0.31 0.38 0.48 0.57 0.65 0.76 0.81 0.79 0.76 0.70 0.70 0.73 0.80 0.77 0.71 0.66 0.66 0.65 0.65 0.65 0.62 0.61 0.59 0.56 0.54 0.51 0.48
0.16 0.13 0.11 0.10 0.10 0.12 0.16 0.14 0.12 0.07 0.05 0.08 0.09 0.11 0.09 0.10 0.14 0.17 0.21 0.23 0.22 0.28 0.35 0.43 0.50 0.60 0.69 0.75 0.80 0.80 0.79 0.77 0.78 0.78 0.76 0.81 0.79 0.69 0.68 0.70 0.65 0.63 0.62 0.61 0.59 0.55 0.52 0.50 0.47
0.20 0.23 0.17 0.12 0.11 0.11 0.21 0.24 0.12 0.07 0.08 0.10 0.10 0.12 0.12 0.11 0.13 0.16 0.22 0.27 0.25 0.29 0.39 0.47 0.52 0.63 0.74 0.74 0.82 0.84 0.83 0.83 0.84 0.81 0.79 0.82 0.84 0.84 0.75 0.72 0.70 0.65 0.65 0.67 0.66 0.62 0.55 0.53 0.48
0.32 0.40 0.31 0.16 0.12 0.13 0.26 0.27 0.09 0.06 0.10 0.11 0.12 0.13 0.13 0.12 0.11 0.15 0.21 0.30 0.31 0.34 0.40 0.48 0.56 0.63 0.73 0.79 0.83 0.89 0.90 0.88 0.88 0.92 0.90 0.89 0.90 0.91 0.91 0.82 0.74 0.68 0.71 0.74 0.76 0.73 0.67 0.57 0.52
0.46 0.43 0.29 0.18 0.16 0.19 0.27 0.23 0.09 0.08 0.12 0.13 0.15 0.13 0.13 0.13 0.11 0.13 0.19 0.27 0.32 0.35 0.42 0.50 0.60 0.62 0.71 0.85 0.87 0.90 0.95 0.97 0.98 1.02 1.05 1.00 0.96 0.95 0.97 0.96 0.89 0.79 0.78 0.77 0.75 0.73 0.70 0.66 0.59
0.44 0.32 0.24 0.20 0.19 0.23 0.24 0.19 0.12 0.10 0.13 0.14 0.15 0.13 0.12 0.13 0.11 0.13 0.19 0.25 0.33 0.39 0.44 0.53 0.62 0.69 0.76 0.93 1.04 1.00 1.01 1.04 1.06 1.06 1.03 1.06 1.06 0.96 0.92 0.98 0.98 0.92 0.86 0.83 0.77 0.73 0.67 0.63 0.61
0.30 0.35 0.30 0.19 0.18 0.25 0.24 0.18 0.12 0.11 0.11 0.12 0.12 0.12 0.12 0.11 0.10 0.12 0.19 0.24 0.33 0.44 0.49 0.56 0.62 0.73 0.85 0.95 1.10 1.06 1.01 1.04 1.07 1.03 1.01 0.99 1.05 1.06 0.98 0.92 0.94 0.95 0.90 0.84 0.80 0.78 0.77 0.73 0.67
0.39 0.42 0.33 0.23 0.18 0.29 0.28 0.19 0.11 0.11 0.11 0.11 0.10 0.12 0.14 0.11 0.10 0.12 0.19 0.24 0.31 0.44 0.49 0.56 0.66 0.75 0.82 0.90 0.98 1.05 1.02 1.05 1.10 1.07 1.05 1.02 1.00 1.05 1.07 0.98 0.91 0.87 0.87 0.88 0.83 0.82 0.81 0.82 0.77
0.46 0.38 0.28 0.26 0.24 0.31 0.37 0.29 0.14 0.12 0.10 0.10 0.10 0.10 0.15 0.16 0.13 0.14 0.22 0.28 0.32 0.42 0.50 0.56 0.66 0.75 0.81 0.97 1.07 1.14 1.25 1.24 1.27 1.26 1.15 1.06 1.01 0.99 1.01 1.02 0.98 0.91 0.85 0.86 0.84 0.80 0.78 0.79 0.75
0.50 0.26 0.24 0.28 0.45 0.51 0.43 0.49 0.18 0.14 0.13 0.12 0.10 0.09 0.12 0.14 0.14 0.15 0.20 0.29 0.34 0.39 0.50 0.59 0.69 0.76 0.80 0.99 1.14 1.11 1.18 1.18 1.12 1.08 1.11 1.08 1.04 0.99 0.96 0.97 0.97 0.99 0.93 0.83 0.79 0.80 0.80 0.82 0.83
0.39 0.23 0.27 0.36 0.51 0.61 0.44 0.49 0.25 0.14 0.14 0.11 0.09 0.08 0.10 0.12 0.13 0.13 0.15 0.21 0.29 0.36 0.47 0.58 0.72 0.82 0.84 0.92 1.11 1.15 1.09 1.06 1.06 1.09 1.09 1.12 1.12 1.06 0.98 0.94 0.94 0.93 0.92 0.84 0.78 0.79 0.81 0.83 0.83
0.36 0.43 0.49 0.55 0.83 1.03 0.39 0.38 0.29 0.24 0.24 0.15 0.09 0.08 0.10 0.10 0.12 0.12 0.11 0.13 0.26 0.37 0.47 0.55 0.68 0.81 0.87 0.87 0.99 1.15 1.11 1.06 1.04 1.09 1.13 1.13 1.16 1.13 1.03 0.92 0.89 0.85 0.82 0.81 0.76 0.70 0.72 0.75 0.76
0.61 0.94 1.34 1.34 1.36 0.82 0.17 0.25 0.30 0.23 0.20 0.19 0.14 0.10 0.10 0.10 0.14 0.14 0.12 0.13 0.20 0.32 0.43 0.53 0.63 0.72 0.80 0.83 0.88 0.98 1.10 1.06 0.99 0.94 1.00 1.08 1.15 1.11 1.03 0.97 0.88 0.82 0.78 0.78 0.77 0.73 0.67 0.67 0.72
0.65 0.85 1.11 1.00 0.64 0.25 0.11 0.23 0.24 0.17 0.13 0.13 0.10 0.09 0.10 0.09 0.10 0.11 0.13 0.15 0.18 0.23 0.30 0.43 0.54 0.67 0.80 0.84 0.84 0.89 0.99 1.10 1.02 0.94 0.92 0.97 1.02 0.99 0.91 0.92 0.88 0.81 0.76 0.78 0.80 0.80 0.73 0.69 0.70
0.62 0.66 0.56 0.72 0.52 0.32 0.21 0.19 0.16 0.07 0.06 0.08 0.09 0.08 0.09 0.09 0.09 0.10 0.12 0.15 0.17 0.22 0.25 0.36 0.45 0.59 0.78 0.89 0.88 0.88 0.93 1.01 1.03 0.95 0.91 0.93 0.93 0.93 0.92 0.91 0.91 0.86 0.85 0.85 0.85 0.85 0.80 0.75 0.73
0.52 0.61 0.75 1.08 0.88 0.45 0.23 0.21 0.23 0.14 0.11 0.10 0.10 0.10 0.09 0.10 0.11 0.11 0.12 0.15 0.17 0.20 0.23 0.31 0.39 0.47 0.60 0.79 0.93 0.93 0.90 0.91 0.98 1.01 0.97 0.92 0.92 0.92 0.92 0.97 0.98 0.93 0.89 0.92 0.94 0.90 0.84 0.84 0.80
0.62 0.81 1.02 1.05 0.76 0.54 0.33 0.30 0.29 0.22 0.18 0.15 0.12 0.12 0.11 0.10 0.11 0.11 0.13 0.15 0.18 0.21 0.26 0.32 0.39 0.45 0.51 0.61 0.78 0.90 0.91 0.95 1.00 1.04 0.99 0.98 0.94 0.93 0.90 0.90 0.98 1.01 0.94 0.88 0.95 0.97 0.93 0.92 0.86
0.53 0.71 0.90 1.10 0.77 0.41 0.36 0.31 0.24 0.19 0.16 0.15 0.13 0.11 0.09 0.09 0.09 0.09 0.11 0.16 0.20 0.24 0.29 0.35 0.43 0.45 0.47 0.55 0.66 0.78 0.89 0.94 1.00 0.99 1.01 1.06 1.04 0.97 0.89 0.86 0.93 1.00 0.99 0.91 0.90 0.93 0.93 0.95 0.92